Location: Courcelles
(49.2596°N, 1.7419°E)
Time: 20:22:41
(UTC+00:00)

MOS 1 Rocket - Pass Details

Date: 17 November 2025
Orbit: 610 x 813 km, 97.4° (Epoch: 10 December)

Event Time Altitude Azimuth Distance (km) Brightness Sun altitude
Rises 16:53:59 0° 137° (SE) 2,883 6.3 -7.5°
Reaches altitude 10° 16:56:18 10° 127° (SE) 1,997 5.4 -7.9°
Maximum altitude 17:00:06 31° 66° (ENE) 1,133 3.9 -8.5°
Drops below altitude 10° 17:04:04 10° 5° (N) 2,090 5.5 -9.1°
Sets 17:06:33 0° 355° (N) 3,041 6.5 -9.4°
